Location: Asheville, NC
(35.6000°N, 82.5500°W)
Time: 03:43:27
(UTC-04:00)

CUBEBUG 2 - Pass Details

Date: 05 January 2018
Orbit: 586 x 700 km, 97.6° (Epoch: 24 June)

Event Time Altitude Azimuth Distance (km) Brightness Sun altitude
Rises 06:45:48 0° 31° (NNE) 3,023 ? -11.0°
Reaches altitude 10° 06:48:39 10° 49° (NE) 2,122 ? -10.4°
Maximum altitude 06:51:55 19° 94° (E) 1,623 ? -9.8°
Drops below altitude 10° 06:55:12 10° 139° (SE) 2,143 ? -9.2°
Sets 06:58:04 0° 157° (SSE) 3,063 ? -8.6°
